Weather History for K3I2 - March, 2012

Change the Weather History Date:

Saturday, March 24, 2012

  Actual Average (KHTS) Record (KHTS)
Temperature  
Mean Temperature 60 °F 49 °F  
Max Temperature 64 °F 60 °F 88 °F (1929)
Min Temperature 55 °F 38 °F 19 °F (2014)
Degree Days  
Heating Degree Days 6 17  
Month to date heating degree days 491  
Since 1 July heating degree days 3992  
Cooling Degree Days 0 0  
Month to date cooling degree days 0  
Year to date cooling degree days 0  
Growing Degree Days 10 (Base 50)    
Moisture  
Dew Point 57 °F    
Average Humidity 91    
Maximum Humidity 100    
Minimum Humidity 64    
Precipitation  
Precipitation 0.00 in 0.12 in 2.15 in (1899)
Month to date precipitation 3.03  
Year to date precipitation 9.07  
Snow  
Snow 0.00 in - - ()
Month to date snowfall  
Since 1 September snowfall  
Snow Depth -    
Sea Level Pressure  
Sea Level Pressure 29.86 in    
Wind  
Wind Speed 2 mph (South)    
Max Wind Speed 13 mph    
Max Gust Speed 22 mph    
Visibility 8 miles    
Events Fog , Rain    
T = Trace of Precipitation, MM = Missing Value Source: NWS Daily Summary

Daily Weather History Graph

Daily Weather History Graph

Search for Another Location

Airport or City:

Trip Planner

Search our weather history database for the weather conditions in past years. The results will help you decide how hot, cold, wet, or windy it might be!

Date:

Astronomy

Mar. 24, 2012 Rise Set
Actual Time 7:24 AM EDT 7:44 PM EDT
Civil Twilight 6:58 AM EDT 8:11 PM EDT
Nautical Twilight 6:26 AM EDT 8:42 PM EDT
Astronomical Twilight 5:55 AM EDT 9:14 PM EDT
Moon 8:04 AM EDT (3/24) 10:01 PM EDT (3/24)
Length of Visible Light 13h 13m
Length of Day
12h 19m
Waxing Crescent, 4% of the Moon is Illuminated
Mar 24
Waxing Crescent
Mar 30
First Quarter
Apr 6
Full
Apr 13
Last Quarter
Apr 21
New

Hourly Weather History & Observations

Time (EDT) Temp. Dew Point Humidity Pressure Visibility Wind Dir Wind Speed Gust Speed Precip Events Conditions
12:15 AM 62.6 °F 62.6 °F 100% 29.87 in 10.0 mi East 4.6 mph - N/A   Clear
12:35 AM 62.6 °F 62.6 °F 100% 29.87 in 10.0 mi East 4.6 mph - N/A   Clear
12:55 AM 62.6 °F 62.6 °F 100% 29.85 in 10.0 mi Calm Calm - N/A   Clear
1:15 AM 60.8 °F 60.8 °F 100% 29.86 in 10.0 mi Calm Calm - N/A   Clear
1:35 AM 59.0 °F 59.0 °F 100% 29.85 in 4.0 mi Calm Calm - N/A   Clear
1:55 AM 59.0 °F 59.0 °F 100% 29.85 in 1.0 mi Calm Calm - N/A   Mist
2:15 AM 59.0 °F 59.0 °F 100% 29.85 in 1.2 mi Calm Calm - N/A   Mist
2:35 AM 57.2 °F 57.2 °F 100% 29.86 in 0.2 mi Calm Calm - N/A Fog Fog
2:55 AM 57.2 °F 57.2 °F 100% 29.85 in 1.0 mi Calm Calm - N/A   Overcast
3:15 AM 57.2 °F 57.2 °F 100% 29.85 in 0.2 mi Calm Calm - N/A Fog Fog
3:35 AM 57.2 °F 57.2 °F 100% 29.84 in 0.5 mi Calm Calm - N/A Fog Fog
3:55 AM 55.4 °F 55.4 °F 100% 29.84 in 0.5 mi Calm Calm - N/A Fog Fog
4:15 AM 55.4 °F 55.4 °F 100% 29.84 in 0.2 mi Calm Calm - N/A Fog Fog
4:35 AM 57.2 °F 57.2 °F 100% 29.87 in 1.5 mi SW 9.2 mph - N/A Rain Light Rain
4:55 AM 59.0 °F 59.0 °F 100% 29.89 in 10.0 mi WSW 12.7 mph 21.9 mph N/A   Mostly Cloudy
5:15 AM 59.0 °F 59.0 °F 100% 29.89 in 10.0 mi WSW 5.8 mph - N/A Rain Light Rain
5:35 AM 59.0 °F 59.0 °F 100% 29.89 in 10.0 mi Calm Calm - N/A Rain Light Rain
5:55 AM 57.2 °F 57.2 °F 100% 29.89 in 10.0 mi Calm Calm - N/A Rain Light Rain
6:15 AM 55.4 °F 55.4 °F 100% 29.88 in 10.0 mi Calm Calm - N/A   Scattered Clouds
6:35 AM 55.4 °F 55.4 °F 100% 29.87 in 7.0 mi Calm Calm - N/A Rain Light Rain
6:55 AM 55.4 °F 55.4 °F 100% 29.87 in 10.0 mi Calm Calm - N/A Rain Light Rain
7:15 AM 55.4 °F 55.4 °F 100% 29.89 in 10.0 mi Calm Calm - N/A Rain Light Rain
8:15 AM 55.4 °F 55.4 °F 100% 29.86 in 7.0 mi East 9.2 mph - N/A Rain Light Rain
8:35 AM 55.4 °F 55.4 °F 100% 29.87 in 10.0 mi SE 5.8 mph - N/A   Scattered Clouds
8:55 AM 55.4 °F 55.4 °F 100% 29.89 in 10.0 mi Calm Calm - N/A   Clear
9:15 AM 57.2 °F 57.2 °F 100% 29.87 in 10.0 mi Calm Calm - N/A   Clear
9:35 AM 57.2 °F 57.2 °F 100% 29.87 in 10.0 mi East 3.5 mph - N/A   Clear
9:55 AM 59.0 °F 59.0 °F 100% 29.89 in 10.0 mi Calm Calm - N/A   Clear
10:15 AM 59.0 °F 59.0 °F 100% 29.87 in 10.0 mi Calm Calm - N/A   Clear
10:35 AM 59.0 °F 59.0 °F 100% 29.87 in 10.0 mi SSE 3.5 mph - N/A   Clear
10:55 AM 59.0 °F 59.0 °F 100% 29.89 in 10.0 mi SSE 4.6 mph - N/A   Clear
11:15 AM 59.0 °F 59.0 °F 100% 29.89 in 10.0 mi South 5.8 mph - N/A   Clear
11:35 AM 59.0 °F 59.0 °F 100% 29.89 in 10.0 mi South 4.6 mph - N/A   Scattered Clouds
11:55 AM 60.8 °F 60.8 °F 100% 29.87 in 10.0 mi South 3.5 mph - N/A   Mostly Cloudy
12:15 PM 60.8 °F 60.8 °F 100% 29.87 in 10.0 mi SW 8.1 mph - N/A   Overcast
12:35 PM 60.8 °F 60.8 °F 100% 29.87 in 10.0 mi SW 4.6 mph - N/A   Overcast
12:55 PM 62.6 °F 59.0 °F 88% 29.86 in 10.0 mi SSW 3.5 mph - N/A   Scattered Clouds
1:15 PM 62.6 °F 59.0 °F 88% 29.86 in 10.0 mi WSW 5.8 mph - N/A   Mostly Cloudy
1:35 PM 60.8 °F 59.0 °F 94% 29.86 in 10.0 mi WSW 5.8 mph - N/A   Overcast
1:55 PM 62.6 °F 59.0 °F 88% 29.86 in 10.0 mi WSW 5.8 mph - N/A   Mostly Cloudy
2:15 PM 64.4 °F 55.4 °F 73% 29.85 in 10.0 mi SW 3.5 mph - N/A   Scattered Clouds
2:35 PM 64.4 °F 55.4 °F 73% 29.84 in 10.0 mi Calm Calm - N/A   Scattered Clouds
2:55 PM 64.4 °F 53.6 °F 68% 29.83 in 10.0 mi West 4.6 mph - N/A   Scattered Clouds
3:15 PM 64.4 °F 53.6 °F 68% 29.83 in 10.0 mi Calm Calm - N/A   Clear
3:35 PM 62.6 °F 53.6 °F 72% 29.82 in 10.0 mi Calm Calm - N/A   Scattered Clouds
3:55 PM 64.4 °F 53.6 °F 68% 29.81 in 10.0 mi Calm Calm - N/A   Clear
4:15 PM 64.4 °F 53.6 °F 68% 29.82 in 10.0 mi NE 3.5 mph - N/A   Scattered Clouds
4:35 PM 64.4 °F 53.6 °F 68% 29.81 in 10.0 mi NE 3.5 mph - N/A   Mostly Cloudy
4:55 PM 64.4 °F 51.8 °F 64% 29.82 in 10.0 mi Calm Calm - N/A   Mostly Cloudy
5:15 PM 64.4 °F 53.6 °F 68% 29.81 in 10.0 mi Calm Calm - N/A   Mostly Cloudy
5:35 PM 64.4 °F 53.6 °F 68% 29.82 in 10.0 mi Calm Calm - N/A   Mostly Cloudy
6:15 PM 62.6 °F 51.8 °F 68% 29.83 in 10.0 mi Calm Calm - N/A   Scattered Clouds
6:35 PM 62.6 °F 51.8 °F 68% 29.83 in 10.0 mi Calm Calm - N/A   Scattered Clouds
6:55 PM 62.6 °F 55.4 °F 77% 29.84 in 10.0 mi Calm Calm - N/A Rain Light Rain
7:35 PM 60.8 °F 53.6 °F 77% 29.84 in 10.0 mi Calm Calm - N/A   Scattered Clouds
7:55 PM 60.8 °F 53.6 °F 77% 29.84 in 10.0 mi Calm Calm - N/A   Scattered Clouds
8:15 PM 60.8 °F 53.6 °F 77% 29.84 in 10.0 mi Calm Calm - N/A   Mostly Cloudy
8:35 PM 60.8 °F 53.6 °F 77% 29.85 in 10.0 mi Calm Calm - N/A   Overcast
8:55 PM 59.0 °F 55.4 °F 88% 29.84 in 10.0 mi Calm Calm - N/A   Overcast
9:15 PM 60.8 °F 55.4 °F 82% 29.85 in 10.0 mi Calm Calm - N/A   Overcast
9:35 PM 59.0 °F 55.4 °F 88% 29.85 in 10.0 mi Calm Calm - N/A   Overcast
9:55 PM 59.0 °F 59.0 °F 100% 29.85 in 10.0 mi Calm Calm - N/A   Overcast
10:15 PM 59.0 °F 59.0 °F 100% 29.86 in 10.0 mi Calm Calm - N/A   Mostly Cloudy
10:35 PM 59.0 °F 57.2 °F 94% 29.85 in 10.0 mi Calm Calm - N/A   Scattered Clouds
10:55 PM 57.2 °F 57.2 °F 100% 29.85 in 10.0 mi Calm Calm - N/A   Scattered Clouds
11:15 PM 57.2 °F 57.2 °F 100% 29.85 in 10.0 mi Calm Calm - N/A   Scattered Clouds
11:35 PM 55.4 °F 55.4 °F 100% 29.85 in 10.0 mi Calm Calm - N/A   Scattered Clouds
11:55 PM 55.4 °F 55.4 °F 100% 29.84 in 10.0 mi Calm Calm - N/A Rain Light Rain